Location: St. Louis
(38.6270°N, 90.1994°W)
Time: 20:13:24
(UTC-06:00)

Altair - Pass Details

Date: 05 December 2021
Orbit: 1501 x 1683 km, 47.2° (Epoch: 26 January)

Event Time Altitude Azimuth Distance (km) Brightness Sun altitude
Rises 16:48:46 0° 265° (W) 4,769 11.6 -2.5°
Reaches altitude 10° 16:52:01 10° 270° (W) 3,760 10.8 -3.0°
Maximum altitude 17:01:16 55° 347° (NNW) 1,789 7.8 -4.7°
Drops below altitude 10° 17:10:17 10° 64° (ENE) 3,661 8.8 -6.3°
Enters shadow 17:11:07 - 66° (ENE) 3,919 8.9 -6.4°
